�N����,����,�g�[���i�����r���O�j���x,�g�[�����x,��g�[���i���ցj���x,����
 2003/04/01, 0:00,18.2,63.6,16.9,12
 2003/04/01, 0:15,17.7,62.3,17.6,12.1
 2003/04/01, 0:30,17.5,62.3,17.5,12.2
 2003/04/01, 0:45,17.4,62.5,17.3,12.2
 2003/04/01, 1:00,17.3,62.1,17.3,12.3
 2003/04/01, 1:15,17.2,62.5,17.2,12.3
 2003/04/01, 1:30,17.1,62.1,17,12.4
 2003/04/01, 1:45,17,62.3,17,12.4
 2003/04/01, 2:00,16.9,61.9,16.9,12.5
 2003/04/01, 2:15,16.8,62.3,16.8,12.3
 2003/04/01, 2:30,16.7,62.1,16.8,12.3
 2003/04/01, 2:45,16.7,62.2,16.6,12.4
 2003/04/01, 3:00,16.6,62.1,16.7,12.4
 2003/04/01, 3:15,16.5,62.2,16.5,12.5
 2003/04/01, 3:30,16.4,62.2,16.5,12.5
 2003/04/01, 3:45,16.4,62.3,16.5,12.5
 2003/04/01, 4:00,16.3,62.2,16.4,12.6
 2003/04/01, 4:15,16.3,62.3,16.3,12.7
 2003/04/01, 4:30,16.2,62.2,16.3,12.7
 2003/04/01, 4:45,16.1,62.5,16.3,12.7
 2003/04/01, 5:00,16.1,62.4,16.2,12.8
 2003/04/01, 5:15,16,62.5,16.2,12.8
 2003/04/01, 5:30,16,62.5,16.1,12.8
 2003/04/01, 5:45,15.9,62.3,16,12.9
 2003/04/01, 6:00,15.9,62.9,16,12.9
 2003/04/01, 6:15,18.2,60.9,16.2,13
 2003/04/01, 6:30,19.8,63.7,16.2,13
 2003/04/01, 6:45,19.4,63.1,16.7,13.1
 2003/04/01, 7:00,18.8,60.6,16.2,13.1
 2003/04/01, 7:15,18.5,60.2,16.1,13.1
 2003/04/01, 7:30,18.4,61.2,16.2,13.2
 2003/04/01, 7:45,18.3,61.3,16.2,13.2
 2003/04/01, 8:00,18.3,61.8,16.1,13.2
 2003/04/01, 8:15,18.3,61.9,16.2,13.3
 2003/04/01, 8:30,18.3,61.5,16.1,13.3
 2003/04/01, 8:45,18.4,61.5,16.2,13.4
 2003/04/01, 9:00,18,59.9,17.4,13.4
 2003/04/01, 9:15,17.8,61.4,17.3,13.4
 2003/04/01, 9:30,17.6,61.6,17.2,13.5
 2003/04/01, 9:45,17.5,62,17.3,13.5
 2003/04/01,10:00,17.4,62.5,17.3,13.5
 2003/04/01,10:15,17.6,62.5,16.9,13.6
 2003/04/01,10:30,17.8,61.8,16.8,13.6
 2003/04/01,10:45,17.9,61.7,16.6,13.6
 2003/04/01,11:00,17.9,61.8,16.7,13.6
 2003/04/01,11:15,17.8,61.5,17.2,13.7
 2003/04/01,11:30,17.8,61.9,17.5,13.7
 2003/04/01,11:45,17.8,62.1,17.5,13.7
 2003/04/01,12:00,17.8,61.6,17.7,13.8
 2003/04/01,12:15,17.8,61.5,17.6,13.8
 2003/04/01,12:30,17.8,61.1,17.6,13.8
 2003/04/01,12:45,17.7,61.1,17.4,13.9
 2003/04/01,13:00,17.9,63.3,17.3,13.9
 2003/04/01,13:15,18,66.1,17.8,14
 2003/04/01,13:30,18.1,65.4,18,14
 2003/04/01,13:45,18.2,65.6,17.8,14
 2003/04/01,14:00,18.1,64.9,17.8,14
 2003/04/01,14:15,18,64.3,17.7,14.1
 2003/04/01,14:30,18,63.7,17.6,14.1
 2003/04/01,14:45,17.9,63.3,17.6,14.1
 2003/04/01,15:00,17.7,59.3,17.4,14.2
 2003/04/01,15:15,17.7,60,17.3,14.2
 2003/04/01,15:30,17.7,60.4,17.3,14.2
 2003/04/01,15:45,17.6,60.3,17.3,14.3
 2003/04/01,16:00,17.6,60,17.3,14.3
 2003/04/01,16:15,17.7,60.4,17.3,14.3
 2003/04/01,16:30,17.6,60.6,17.3,14.4
 2003/04/01,16:45,17.5,60.6,17.2,14.4
 2003/04/01,17:00,17.5,60.9,17.2,14.4
 2003/04/01,17:15,17.7,61.5,17.4,14.4
 2003/04/01,17:30,17.8,65,17.8,14.5
 2003/04/01,17:45,17.8,68.7,17.6,14.5
 2003/04/01,18:00,18,65.2,17.3,14.6
 2003/04/01,18:15,19.7,65.4,17.3,14.6
 2003/04/01,18:30,21.4,64.3,17.3,14.6
 2003/04/01,18:45,21.5,65.8,17.3,14.7
 2003/04/01,19:00,21.8,63.9,17.4,14.7
 2003/04/01,19:15,20.5,58.4,17.6,14.7
 2003/04/01,19:30,20,60.6,17.7,14.8
 2003/04/01,19:45,19.7,63.3,18.3,14.8
 2003/04/01,20:00,19.4,62.4,18.5,12.8
 2003/04/01,20:15,19.1,62.3,18.5,12.9
 2003/04/01,20:30,18.9,62.4,18.4,12.9
 2003/04/01,20:45,18.7,62.9,18.3,13
 2003/04/01,21:00,18.5,63,18.2,12.8
 2003/04/01,21:15,18.4,63,18,12.8
 2003/04/01,21:30,18.3,62.8,18,12.9
 2003/04/01,21:45,18.2,62.6,17.8,12.9
 2003/04/01,22:00,18.1,62.9,17.7,13
 2003/04/01,22:15,17.9,63,17.7,13.1
 2003/04/01,22:30,17.8,63.1,17.6,13.1
 2003/04/01,22:45,17.7,62.9,17.4,13.2
 2003/04/01,23:00,17.6,62.9,17.4,13.2
 2003/04/01,23:15,17.5,63.2,17.2,13.3
 2003/04/01,23:30,17.4,63.2,17.3,13.3
 2003/04/01,23:45,17.3,63.4,17.2,13.4
 2003/04/02, 0:00,17.3,64.7,17.1,13.4
 2003/04/02, 0:15,17.3,64,17.2,13.5
 2003/04/02, 0:30,17.2,64.1,17.1,13.5
 2003/04/02, 0:45,17.1,64.2,16.9,13.6
 2003/04/02, 1:00,17,64,16.9,13.6
 2003/04/02, 1:15,17,64.2,16.8,13.7
 2003/04/02, 1:30,16.9,64.2,16.8,12.7
 2003/04/02, 1:45,16.8,64.2,16.6,12.8
 2003/04/02, 2:00,16.7,64.3,16.7,12.8
 2003/04/02, 2:15,16.7,64.3,16.7,12.8
 2003/04/02, 2:30,16.6,64.1,16.6,12.9
 2003/04/02, 2:45,16.5,64.4,16.5,13
 2003/04/02, 3:00,16.5,64.1,16.5,13
 2003/04/02, 3:15,16.4,64.3,16.4,13
 2003/04/02, 3:30,16.3,64.3,16.4,13.1
 2003/04/02, 3:45,16.3,64.4,16.4,13.1
 2003/04/02, 4:00,16.2,64.3,16.3,13.2
 2003/04/02, 4:15,16.2,64.4,16.3,13.2
 2003/04/02, 4:30,16.1,64.2,16.3,13.3
 2003/04/02, 4:45,16,64.5,16.1,13.3
 2003/04/02, 5:00,16,64.3,16.2,13.4
 2003/04/02, 5:15,15.9,64.4,16.2,13.4
 2003/04/02, 5:30,15.9,64.4,16.1,13.4
 2003/04/02, 5:45,15.8,64.3,16,13.5
 2003/04/02, 6:00,15.8,64.3,15.9,13.5
 2003/04/02, 6:15,16.6,66.2,16,13.5
 2003/04/02, 6:30,19.3,66.7,16.3,13.6
 2003/04/02, 6:45,19.6,64.8,16.9,13.6
 2003/04/02, 7:00,18.4,63.2,16.5,13.6
 2003/04/02, 7:15,18.1,63.8,16.5,13.7
 2003/04/02, 7:30,17.9,64,16.3,13.7
 2003/04/02, 7:45,17.8,64.9,16.3,13.7
 2003/04/02, 8:00,17.7,65.6,16.4,13.7
 2003/04/02, 8:15,17.7,66.9,16.4,13.8
 2003/04/02, 8:30,17.7,66.7,16.3,13.8
 2003/04/02, 8:45,17.5,66.6,16.7,13.8
 2003/04/02, 9:00,17.4,66.6,17.1,13.9
 2003/04/02, 9:15,17.4,67.4,17.1,13.9
 2003/04/02, 9:30,17.3,67.5,17.1,13.9
 2003/04/02, 9:45,17.4,67.7,17,14
 2003/04/02,10:00,17.5,67.3,16.9,14
 2003/04/02,10:15,17.3,67.6,17.2,14
 2003/04/02,10:30,17.3,68.7,17.1,14
 2003/04/02,10:45,17.3,69.8,17.3,14.1
 2003/04/02,11:00,17.5,68.3,17.3,14.1
 2003/04/02,11:15,17.5,65.9,17.3,13.3
 2003/04/02,11:30,17.2,64.4,17.2,13.4
 2003/04/02,11:45,17.6,65.2,16.9,12
 2003/04/02,12:00,17.5,66.2,17.1,12
 2003/04/02,12:15,17.6,67.8,17.1,12.1
 2003/04/02,12:30,17.7,67.1,17,12.2
 2003/04/02,12:45,17.6,67.5,17.2,12.7
 2003/04/02,13:00,17.7,66.9,17.4,12.6
 2003/04/02,13:15,17.7,66.6,17.4,12.7
 2003/04/02,13:30,17.4,65.1,17.5,12.7
 2003/04/02,13:45,17.7,66.9,17,12.7
 2003/04/02,14:00,18,66.5,17.3,12.8
 2003/04/02,14:15,18.2,66.8,16.9,12.8
 2003/04/02,14:30,18.4,66.1,17,12.9
 2003/04/02,14:45,18.5,66,17,12.9
 2003/04/02,15:00,18.5,63.7,17.7,13
 2003/04/02,15:15,18.8,65.1,17.2,13
 2003/04/02,15:30,20.5,62.3,19.2,13.1
 2003/04/02,15:45,21.7,59.9,20.1,13.1
 2003/04/02,16:00,20.6,60.4,18.4,13.1
 2003/04/02,16:15,20.4,61.4,17.8,13.2
 2003/04/02,16:30,20.7,62,17.6,13.3
 2003/04/02,16:45,20.7,63,17.5,13.3
 2003/04/02,17:00,19.4,62.8,19,13.3
 2003/04/02,17:15,21.5,60.7,18.5,13.4
 2003/04/02,17:30,22,60.1,17.8,13.4
 2003/04/02,17:45,22.3,59.9,17.7,13.5
 2003/04/02,18:00,22.6,59.2,17.6,13.5
 2003/04/02,18:15,22.4,58.4,17.6,13.6
 2003/04/02,18:30,22,63.9,17.5,13.6
 2003/04/02,18:45,21.2,63,17.2,13.6
 2003/04/02,19:00,21.4,63.6,17.2,13.7
 2003/04/02,19:15,21.3,64.9,17.2,13.8
 2003/04/02,19:30,21.2,65.1,17.1,13.8
 2003/04/02,19:45,20.6,66.4,17.3,13.8
 2003/04/02,20:00,20.6,67.6,17.1,13.9
 2003/04/02,20:15,20.5,68.4,17.2,13.9
 2003/04/02,20:30,19.7,65.3,18.3,13.9
 2003/04/02,20:45,18.9,68.8,18.5,13.9
 2003/04/02,21:00,18.7,71.7,18.4,14
 2003/04/02,21:15,18.6,71.9,18.3,14
 2003/04/02,21:30,18.5,70.3,18.2,14.1
 2003/04/02,21:45,18.3,69.6,18.1,13.5
 2003/04/02,22:00,18.1,68.7,18,13.4
 2003/04/02,22:15,18,68,17.8,13.4
 2003/04/02,22:30,18,68.7,17.6,13.5
 2003/04/02,22:45,18.5,69.3,17.1,13.5
 2003/04/02,23:00,18.7,70.1,17.1,13.6
 2003/04/02,23:15,18.8,70.2,17,13.6
 2003/04/02,23:30,18.2,66.6,18,13.6
 2003/04/02,23:45,17.9,66.7,17.8,13.6
 2003/04/03, 0:00,17.7,66.5,17.5,13.7
 2003/04/03, 0:15,17.5,66.1,17.6,13.7
 2003/04/03, 0:30,17.4,65.8,17.4,13.8
 2003/04/03, 0:45,17.3,65.6,17.3,13.8
 2003/04/03, 1:00,17.1,65.5,17.2,13.8
 2003/04/03, 1:15,17,65.2,17,13.8
 2003/04/03, 1:30,16.9,65.1,16.9,12.9
 2003/04/03, 1:45,16.8,65,16.8,12.8
 2003/04/03, 2:00,16.7,64.7,16.8,12.9
 2003/04/03, 2:15,16.6,65,16.6,12.6
 2003/04/03, 2:30,16.5,65,16.6,12.7
 2003/04/03, 2:45,16.4,65,16.5,12.8
 2003/04/03, 3:00,16.3,65,16.4,12.8
 2003/04/03, 3:15,16.2,64.8,16.3,12.8
 2003/04/03, 3:30,16.2,64.6,16.3,12.8
 2003/04/03, 3:45,16,64.8,16.2,12.9
 2003/04/03, 4:00,16,64.6,16.2,13
 2003/04/03, 4:15,15.9,64.7,16.1,13
 2003/04/03, 4:30,15.8,64.4,16,13
 2003/04/03, 4:45,15.7,64.5,15.9,13.1
 2003/04/03, 5:00,15.7,64.6,15.9,13.1
 2003/04/03, 5:15,15.6,64.8,15.8,13.1
 2003/04/03, 5:30,15.5,65.1,15.7,13.2
 2003/04/03, 5:45,18.2,61,15.9,13.2
 2003/04/03, 6:00,19.6,58.6,16.2,13.2
 2003/04/03, 6:15,18.2,58.2,18.3,13.3
 2003/04/03, 6:30,17.4,60.6,17.1,13.3
 2003/04/03, 6:45,17,61.4,16.8,13.3
 2003/04/03, 7:00,16.6,62,16.6,13.3
 2003/04/03, 7:15,16.4,62.3,16.4,13.4
 2003/04/03, 7:30,16.3,62.4,16.2,13.4
 2003/04/03, 7:45,16.5,64.1,16.3,12.5
 2003/04/03, 8:00,16.3,65.6,16.6,12.5
 2003/04/03, 8:15,16.3,66.3,16.7,12.6
 2003/04/03, 8:30,16.6,65.5,16.7,12.6
 2003/04/03, 8:45,16.5,68.1,16.8,12.7
 2003/04/03, 9:00,16.8,67.3,17,12.7
 2003/04/03, 9:15,16.9,67.5,17.2,12.7
 2003/04/03, 9:30,17.2,66.9,17.6,12.8
 2003/04/03, 9:45,17.2,66.7,17.9,12.8
 2003/04/03,10:00,17.4,66.4,17.9,12.9
 2003/04/03,10:15,17.5,58,18.2,12.9
 2003/04/03,10:30,17.5,63.8,18.2,12.9
 2003/04/03,10:45,17.6,64.6,18.6,13
 2003/04/03,11:00,17.7,64.4,18.8,13
 2003/04/03,11:15,17.7,64.5,18.8,13.1
 2003/04/03,11:30,17.8,64.7,19,13.1
 2003/04/03,11:45,17.9,64.2,18.9,13.1
 2003/04/03,12:00,18,64.1,19,13.2
 2003/04/03,12:15,18.1,63.7,19.2,13.2
 2003/04/03,12:30,18.2,63.8,19.3,13.2
 2003/04/03,12:45,18.2,63.5,19.4,13.3
 2003/04/03,13:00,18.3,63.5,19.4,13.3
 2003/04/03,13:15,18.4,63.2,19.5,13.4
 2003/04/03,13:30,18.5,63.3,19.4,13.4
 2003/04/03,13:45,18.6,63,19.6,13.5
 2003/04/03,14:00,18.6,63.2,19.6,13.5
 2003/04/03,14:15,18.7,63,19.5,13.6
 2003/04/03,14:30,18.8,62.9,19.5,13.6
 2003/04/03,14:45,18.8,62.8,19.6,13.7
 2003/04/03,15:00,18.9,63,19.6,13.7
 2003/04/03,15:15,18.9,62.8,19.5,13.8
 2003/04/03,15:30,18.9,62.6,19.4,13.8
 2003/04/03,15:45,19,62.7,19.2,13.9
 2003/04/03,16:00,19,62.4,19.2,13.9
 2003/04/03,16:15,19,62.6,19.2,14
 2003/04/03,16:30,19,62.5,19.2,14
 2003/04/03,16:45,19.1,62.5,19.1,14.1
 2003/04/03,17:00,19,62,19.2,14.2
 2003/04/03,17:15,19.1,61.4,19.1,14.2
 2003/04/03,17:30,19.1,60.5,19.1,14.3
 2003/04/03,17:45,19.3,59,19.2,14.3
 2003/04/03,18:00,19.2,60.1,19.2,14.4
 2003/04/03,18:15,19.2,60.9,19.2,14.5
 2003/04/03,18:30,19.4,61.2,19.2,14.5
 2003/04/03,18:45,19.5,62.1,19.2,14.6
 2003/04/03,19:00,19.6,65,19.1,14.7
 2003/04/03,19:15,19.8,67.1,18.9,14.7
 2003/04/03,19:30,20,65.5,18.8,14.8
 2003/04/03,19:45,19.9,65.3,18.7,14.8
 2003/04/03,20:00,19.9,64.1,18.6,14.9
 2003/04/03,20:15,19.4,62.6,19.2,14.9
 2003/04/03,20:30,19.3,62.8,19.2,15
 2003/04/03,20:45,19.3,64.8,19.2,15
 2003/04/03,21:00,19,64.7,19,15.1
 2003/04/03,21:15,18.8,64.7,18.8,14.2
 2003/04/03,21:30,18.7,64.7,18.7,14.2
 2003/04/03,21:45,18.5,64.3,18.6,14.3
 2003/04/03,22:00,18.5,64.4,18.5,14.3
 2003/04/03,22:15,18.8,65.4,18.3,14.4
 2003/04/03,22:30,18.9,64.8,18.2,14.4
 2003/04/03,22:45,18.9,64.5,18.1,14.5
 2003/04/03,23:00,18.6,62.4,18.5,14.5
 2003/04/03,23:15,18.4,63.1,18.4,14.6
 2003/04/03,23:30,18.2,62.7,18.1,14.6
 2003/04/03,23:45,18.1,62.9,18.1,14.7
 2003/04/04, 0:00,18,62.5,18,14.7
 2003/04/04, 0:15,17.9,62.8,17.9,14.8
 2003/04/04, 0:30,17.8,62.2,17.8,14.8
 2003/04/04, 0:45,17.7,62.4,17.6,14.9
 2003/04/04, 1:00,17.6,62,17.6,14
 2003/04/04, 1:15,17.5,62.5,17.6,14
 2003/04/04, 1:30,17.4,62.3,17.5,14.1
 2003/04/04, 1:45,17.3,62.5,17.4,14.1
 2003/04/04, 2:00,17.2,62.3,17.3,14.2
 2003/04/04, 2:15,17.1,62.6,17.2,14.2
 2003/04/04, 2:30,17,62.2,17.2,14.2
 2003/04/04, 2:45,16.9,62.6,17.1,14.3
 2003/04/04, 3:00,16.8,62.3,16.9,14.3
 2003/04/04, 3:15,16.7,62.5,16.9,14.4
 2003/04/04, 3:30,16.6,62.5,16.9,14.4
 2003/04/04, 3:45,16.5,62.4,16.8,14.4
 2003/04/04, 4:00,16.4,62.1,16.7,14.5
 2003/04/04, 4:15,16.3,62.3,16.7,14.5
 2003/04/04, 4:30,16.2,62.2,16.6,14.5
 2003/04/04, 4:45,16.2,62.3,16.5,14.5
 2003/04/04, 5:00,16.1,62,16.3,14.6
 2003/04/04, 5:15,16,62.2,16.3,14.6
 2003/04/04, 5:30,16,61.9,16.2,14.6
 2003/04/04, 5:45,15.9,62.2,16.2,14.7
 2003/04/04, 6:00,15.8,61.9,16.2,14.7
 2003/04/04, 6:15,16.2,62.4,16.1,14.7
 2003/04/04, 6:30,16.6,65.9,16.2,14.7
 2003/04/04, 6:45,16.6,65.2,16.2,14.8
 2003/04/04, 7:00,16.6,64.1,16.2,14.8
 2003/04/04, 7:15,16.6,64,16.2,14.8
 2003/04/04, 7:30,16.7,63.7,16.2,14.8
 2003/04/04, 7:45,18.9,61.6,16.2,14.9
 2003/04/04, 8:00,20.2,60.9,16.3,14.9
 2003/04/04, 8:15,19.8,60.8,16.3,14.9
 2003/04/04, 8:30,18.5,59,17.8,14.9
 2003/04/04, 8:45,18.3,60,17.6,15
 2003/04/04, 9:00,18.1,61.7,17.6,15
 2003/04/04, 9:15,17.8,60.9,17.5,15
 2003/04/04, 9:30,17.6,61.2,17.2,15
 2003/04/04, 9:45,17.5,61.3,17.2,15.1
 2003/04/04,10:00,17.3,61.2,17.1,15
 2003/04/04,10:15,17.2,61.4,16.9,15.1
 2003/04/04,10:30,17.1,61.6,16.8,15.1
 2003/04/04,10:45,17,61.5,16.7,15.1
 2003/04/04,11:00,16.9,61.6,16.6,15.1
 2003/04/04,11:15,16.8,61.8,16.5,15.2
 2003/04/04,11:30,16.7,61.8,16.5,15.1
 2003/04/04,11:45,16.6,61.8,16.4,15.2
 2003/04/04,12:00,16.6,61.9,16.4,15.2
 2003/04/04,12:15,16.5,62.4,16.4,15.2
 2003/04/04,12:30,16.5,63.1,16.3,15.3
 2003/04/04,12:45,16.5,65.1,16.5,15.3
 2003/04/04,13:00,16.6,65.8,16.5,15.3
 2003/04/04,13:15,16.7,65.5,16.7,15.3
 2003/04/04,13:30,17,66.6,16.7,15.3
 2003/04/04,13:45,17,68.8,16.8,15.3
 2003/04/04,14:00,17.3,71.7,16.9,12.5
 2003/04/04,14:15,17,67,16.9,12.6
 2003/04/04,14:30,17,66.6,16.8,12.6
 2003/04/04,14:45,16.9,68.1,16.7,12.7
 2003/04/04,15:00,17,68.7,16.9,12.8
 2003/04/04,15:15,17.1,68.1,16.6,12.8
 2003/04/04,15:30,17.5,67.5,16.7,12.9
 2003/04/04,15:45,17.5,66.8,16.7,12.9
 2003/04/04,16:00,17.2,66.4,16.7,12.9
 2003/04/04,16:15,17,66.9,16.5,13
 2003/04/04,16:30,16.9,66.5,16.4,13
 2003/04/04,16:45,16.8,66.3,16.4,13.1
 2003/04/04,17:00,18.8,65,16.5,13.1
 2003/04/04,17:15,20.8,59.9,17.8,13.1
 2003/04/04,17:30,21,61.4,19.7,13.2
 2003/04/04,17:45,20.4,63,18.4,13.3
 2003/04/04,18:00,20,69.4,17.2,13.3
 2003/04/04,18:15,19.4,65.8,16.8,13.3
 2003/04/04,18:30,19.2,68.4,16.7,13.3
 2003/04/04,18:45,19.1,67.6,16.6,13.4
 2003/04/04,19:00,19.3,69.5,16.5,13.4
 2003/04/04,19:15,20.8,66.9,16.5,13.5
 2003/04/04,19:30,22.3,62.6,16.7,13.5
 2003/04/04,19:45,21.8,63.9,16.4,13.5
 2003/04/04,20:00,22,63.4,16.4,13.5
 2003/04/04,20:15,22.1,63,16.3,13.6
 2003/04/04,20:30,22.2,62.6,16.3,13.6
 2003/04/04,20:45,22,62.5,16.4,13.7
 2003/04/04,21:00,22.2,61.2,16.5,13.7
 2003/04/04,21:15,22.3,56.7,16.2,13.7
 2003/04/04,21:30,22,53.7,16.7,13.7
 2003/04/04,21:45,22.2,51,15.9,13.7
 2003/04/04,22:00,22,52.6,20.6,13.8
 2003/04/04,22:15,21,54.8,16.8,13
 2003/04/04,22:30,19.6,56.3,19,13
 2003/04/04,22:45,19,57.4,18.5,13
 2003/04/04,23:00,18.5,58.7,18.3,13
 2003/04/04,23:15,18.1,60.1,18.1,13.1
 2003/04/04,23:30,17.8,62.1,17.9,13.1
 2003/04/04,23:45,17.6,62.6,17.6,13.1
 2003/04/05, 0:00,17.3,63.1,17.6,13.2
 2003/04/05, 0:15,17.1,63.1,17.4,13.2
 2003/04/05, 0:30,17,63.2,17.2,13.2
 2003/04/05, 0:45,16.8,63.1,16.9,13.2
 2003/04/05, 1:00,16.6,63.4,16.8,13.2
 2003/04/05, 1:15,16.5,63.3,16.6,13.3
 2003/04/05, 1:30,16.3,63.6,16.5,13.3
 2003/04/05, 1:45,16.2,63.6,16.4,13.3
 2003/04/05, 2:00,16,63.8,16.3,13.3
 2003/04/05, 2:15,15.9,63.6,16.2,13.3
 2003/04/05, 2:30,15.8,63.6,16,13.3
 2003/04/05, 2:45,15.6,64,15.9,13.3
 2003/04/05, 3:00,15.5,63.9,15.8,13.4
 2003/04/05, 3:15,15.4,64,15.7,13.4
 2003/04/05, 3:30,15.3,64.5,15.6,13.4
 2003/04/05, 3:45,15.2,64.4,15.5,13.4
 2003/04/05, 4:00,15.1,64.5,15.4,13.4
 2003/04/05, 4:15,15,64.5,15.3,13.4
 2003/04/05, 4:30,14.9,64.5,15.2,13.5
 2003/04/05, 4:45,14.8,64.7,15.2,13.5
 2003/04/05, 5:00,14.8,64.7,15.1,13.5
 2003/04/05, 5:15,14.7,64.7,15,13.5
 2003/04/05, 5:30,14.6,65,14.9,13.5
 2003/04/05, 5:45,14.5,64.8,14.8,13.5
 2003/04/05, 6:00,14.4,65.1,14.7,13.5
 2003/04/05, 6:15,14.4,65.1,14.6,13.5
 2003/04/05, 6:30,14.3,65.3,14.5,13.5
 2003/04/05, 6:45,14.2,65.1,14.5,13.5
 2003/04/05, 7:00,14.2,65.2,14.4,13.5
 2003/04/05, 7:15,14.1,65,14.4,13.6
 2003/04/05, 7:30,14.1,65.4,14.3,13.5
 2003/04/05, 7:45,14,65.4,14.2,13.5
 2003/04/05, 8:00,14,66.1,14.2,13.6
 2003/04/05, 8:15,17.2,66.2,14.3,13.5
 2003/04/05, 8:30,18.9,65.6,14.4,13.6
 2003/04/05, 8:45,20.4,62.8,14.5,13.6
 2003/04/05, 9:00,20.6,58.8,14.8,13.6
 2003/04/05, 9:15,19.4,58.1,20.1,13.6
 2003/04/05, 9:30,17.7,61.7,17.3,13.5
 2003/04/05, 9:45,17,62.9,16.7,13.5
 2003/04/05,10:00,16.6,63.6,16.4,13.5
 2003/04/05,10:15,16.3,64,16.1,13.5
 2003/04/05,10:30,16.1,64.2,15.9,13.6
 2003/04/05,10:45,15.9,64.4,15.7,13.6
 2003/04/05,11:00,15.7,64.3,15.6,13.6
 2003/04/05,11:15,15.6,64.3,15.4,13.5
 2003/04/05,11:30,15.5,64.4,15.3,13.6
 2003/04/05,11:45,16,66.8,15,13.6
 2003/04/05,12:00,18.8,65.6,15,13.6
 2003/04/05,12:15,20.3,64,15,13.6
 2003/04/05,12:30,20.4,59.1,14.8,13.6
 2003/04/05,12:45,20.3,56.1,15.4,13.6
 2003/04/05,13:00,19.3,55.9,15.1,13.6
 2003/04/05,13:15,18.7,57,15,13.6
 2003/04/05,13:30,18.6,58.3,14.9,13.6
 2003/04/05,13:45,18.4,58.7,14.8,13.6
 2003/04/05,14:00,17.7,58,16.8,12.8
 2003/04/05,14:15,17,60.2,16.5,12.8
 2003/04/05,14:30,16.6,61.1,16.3,12.8
 2003/04/05,14:45,16.3,61.6,16,12.8
 2003/04/05,15:00,16.1,61.8,15.9,12.9
 2003/04/05,15:15,15.9,62.3,15.7,12.8
 2003/04/05,15:30,15.7,62.4,15.6,12.9
 2003/04/05,15:45,15.5,62.6,15.4,12.9
 2003/04/05,16:00,15.4,62.8,15.3,12.9
 2003/04/05,16:15,15.2,62.9,15.2,12.9
 2003/04/05,16:30,15.1,63.1,15.1,12.9
 2003/04/05,16:45,15,63,15,12.9
 2003/04/05,17:00,14.9,63.2,14.9,12.9
 2003/04/05,17:15,14.8,63.1,14.8,12.9
 2003/04/05,17:30,14.7,63.4,14.7,12.9
 2003/04/05,17:45,14.6,63.1,14.6,13
 2003/04/05,18:00,14.5,63.4,14.5,13
 2003/04/05,18:15,14.4,63.4,14.4,13
 2003/04/05,18:30,14.3,63.4,14.4,13
 2003/04/05,18:45,14.3,63.5,14.2,13
 2003/04/05,19:00,14.2,63.5,14.2,13
 2003/04/05,19:15,14.1,63.4,14.1,13
 2003/04/05,19:30,14,63.5,14,13
 2003/04/05,19:45,13.9,63.5,13.9,13
 2003/04/05,20:00,13.8,63.6,13.9,13
 2003/04/05,20:15,13.8,63.4,13.8,13
 2003/04/05,20:30,13.7,63.5,13.7,13
 2003/04/05,20:45,13.6,63.4,13.6,13
 2003/04/05,21:00,13.5,63.3,13.6,13
 2003/04/05,21:15,13.5,63.3,13.5,13
 2003/04/05,21:30,13.4,63.4,13.4,13
 2003/04/05,21:45,13.3,63.1,13.3,13
 2003/04/05,22:00,13.2,63.1,13.3,13
 2003/04/05,22:15,13.1,62.7,13.2,12.9
 2003/04/05,22:30,13,62.8,13.2,13
 2003/04/05,22:45,13,62.6,13.2,12.9
 2003/04/05,23:00,12.9,62.6,13,12.9
 2003/04/05,23:15,12.8,62.5,13,12.9
 2003/04/05,23:30,12.7,62.5,12.9,12.9
 2003/04/05,23:45,12.6,62.5,12.8,12.9
 2003/04/06, 0:00,12.6,62.7,12.7,12.9
 2003/04/06, 0:15,12.5,62.4,12.6,12.9
 2003/04/06, 0:30,12.4,62.5,12.5,12.9
 2003/04/06, 0:45,12.3,62.3,12.5,12
 2003/04/06, 1:00,12.2,62.5,12.4,11.3
 2003/04/06, 1:15,12.1,62.4,12.4,11.3
 2003/04/06, 1:30,12,62.6,12.3,11.3
 2003/04/06, 1:45,12,62.4,12.2,11.3
 2003/04/06, 2:00,11.9,62.5,12.1,11.4
 2003/04/06, 2:15,11.8,62.5,12.1,11.3
 2003/04/06, 2:30,11.7,62.5,12,11.4
 2003/04/06, 2:45,11.6,62.2,11.9,11.4
 2003/04/06, 3:00,11.5,62.4,11.8,11.4
 2003/04/06, 3:15,11.5,62.4,11.8,11.4
 2003/04/06, 3:30,11.4,62.3,11.7,11.4
 2003/04/06, 3:45,11.3,62,11.6,11.4
 2003/04/06, 4:00,11.2,62.3,11.6,11.4
 2003/04/06, 4:15,11.1,62,11.5,11.4
 2003/04/06, 4:30,11.1,62.1,11.4,11.4
 2003/04/06, 4:45,11,61.8,11.4,11.4
 2003/04/06, 5:00,10.9,62,11.3,11.3
 2003/04/06, 5:15,10.8,62,11.2,11.3
 2003/04/06, 5:30,10.8,61.9,11.2,11.3
 2003/04/06, 5:45,10.7,65.4,11.4,11.3
 2003/04/06, 6:00,10.7,68.1,11.7,11.3
 2003/04/06, 6:15,11.2,72.6,11.8,11.3
 2003/04/06, 6:30,11.2,69.9,11.6,11.3
 2003/04/06, 6:45,11,69.6,11.7,11.3
 2003/04/06, 7:00,10.9,69.2,11.6,11.2
 2003/04/06, 7:15,10.9,68.7,11.5,11.3
 2003/04/06, 7:30,11,68.7,11.5,11.2
 2003/04/06, 7:45,11,67.7,11.5,11.2
 2003/04/06, 8:00,11.1,67.9,11.6,11.2
 2003/04/06, 8:15,11.2,67.1,11.7,11.2
 2003/04/06, 8:30,13.1,67.5,11.8,11.2
 2003/04/06, 8:45,15,65.8,14.8,11.2
 2003/04/06, 9:00,18.7,60,12.7,11.2
 2003/04/06, 9:15,15.2,62,15.7,11.2
 2003/04/06, 9:30,14.6,63.9,15.2,11.2
 2003/04/06, 9:45,14.4,64.8,15.2,11.2
 2003/04/06,10:00,14.3,65,15.1,11.2
 2003/04/06,10:15,14.3,65.2,15.1,11.2
 2003/04/06,10:30,14.4,65.1,15.2,11.2
 2003/04/06,10:45,14.6,64.5,15.1,11.2
 2003/04/06,11:00,14.6,64.9,15.4,11.1
 2003/04/06,11:15,14.7,64.8,15.3,11.2
 2003/04/06,11:30,14.8,64.7,15.5,11.2
 2003/04/06,11:45,14.9,64.8,15.6,11.1
 2003/04/06,12:00,14.9,64.7,15.7,11.2
 2003/04/06,12:15,15,65,15.7,11.2
 2003/04/06,12:30,15,65.1,15.7,11.2
 2003/04/06,12:45,15,65.5,15.7,11.2
 2003/04/06,13:00,15,65.5,15.8,11.2
 2003/04/06,13:15,15,65.9,15.9,11.2
 2003/04/06,13:30,15.1,65.6,15.9,11.2
 2003/04/06,13:45,15.1,66.1,16,11.2
 2003/04/06,14:00,15.2,65.6,16,11.3
 2003/04/06,14:15,15.2,66.4,16,11.3
 2003/04/06,14:30,15.3,65.9,16,11.3
 2003/04/06,14:45,15.4,66.3,16,11.3
 2003/04/06,15:00,15.4,66.1,16,11.3
 2003/04/06,15:15,15.5,66.4,16,11.4
 2003/04/06,15:30,15.6,66,16,11.4
 2003/04/06,15:45,15.6,66.4,16,11.4
 2003/04/06,16:00,15.6,66.2,16,11.5
 2003/04/06,16:15,15.6,66.3,15.9,11.5
 2003/04/06,16:30,15.7,66.4,15.9,11.6
 2003/04/06,16:45,15.7,66.4,15.7,11.6
 2003/04/06,17:00,15.7,66.3,15.7,11.6
 2003/04/06,17:15,15.6,66.4,15.6,11.6
 2003/04/06,17:30,15.6,66,15.6,11.7
 2003/04/06,17:45,15.6,66.5,15.5,11.7
 2003/04/06,18:00,15.5,66.6,15.4,11.8
 2003/04/06,18:15,15.4,67,15.3,11.8
 2003/04/06,18:30,15.3,67,15.3,11.9
 2003/04/06,18:45,15.3,66.8,15.2,11.9
 2003/04/06,19:00,15.4,66.1,15.3,12
 2003/04/06,19:15,15.7,71.4,15.4,12
 2003/04/06,19:30,15.7,73.8,15.4,12
 2003/04/06,19:45,16.8,80.1,15.5,12.1
 2003/04/06,20:00,19.1,70.4,15.6,12.1
 2003/04/06,20:15,20.7,69.2,15.7,12.2
 2003/04/06,20:30,22.2,66.4,15.8,12.2
 2003/04/06,20:45,22.3,68.3,16.2,12.3
 2003/04/06,21:00,22.9,65.6,16,12.3
 2003/04/06,21:15,21.7,62.5,16.2,12.4
 2003/04/06,21:30,20.1,59.9,16.3,12.4
 2003/04/06,21:45,18.8,59.9,17.9,12.3
 2003/04/06,22:00,18.2,60.8,17.5,12
 2003/04/06,22:15,17.7,61.5,17.2,12
 2003/04/06,22:30,17.3,62,16.9,12.1
 2003/04/06,22:45,16.9,62.2,16.7,11.9
 2003/04/06,23:00,16.6,62.2,16.5,11.9
 2003/04/06,23:15,16.4,62.6,16.3,11.9
 2003/04/06,23:30,16.1,62.5,16.1,12
 2003/04/06,23:45,15.9,62.8,15.9,12
 2003/04/07, 0:00,15.7,62.8,15.7,12
 2003/04/07, 0:15,15.5,63,15.6,12
 2003/04/07, 0:30,15.3,62.6,15.4,12.1
 2003/04/07, 0:45,15.1,63,15.3,12.1
 2003/04/07, 1:00,14.9,62.7,15.2,12.1
 2003/04/07, 1:15,14.8,62.7,15,12.2
 2003/04/07, 1:30,14.7,62.3,14.8,12.2
 2003/04/07, 1:45,14.5,62.2,14.7,12.2
 2003/04/07, 2:00,14.4,62.2,14.5,12.2
 2003/04/07, 2:15,14.3,62.6,14.4,12.3
 2003/04/07, 2:30,14.1,62.5,14.4,12.3
 2003/04/07, 2:45,14,62.6,14.2,12.3
 2003/04/07, 3:00,13.9,62.4,14.1,12.4
 2003/04/07, 3:15,13.8,62.5,13.9,12.3
 2003/04/07, 3:30,13.6,61.9,13.9,12.4
 2003/04/07, 3:45,13.5,62.4,13.8,12.4
 2003/04/07, 4:00,13.4,62.1,13.6,12.4
 2003/04/07, 4:15,13.3,62.2,13.5,12.4
 2003/04/07, 4:30,13.2,62.3,13.5,12.4
 2003/04/07, 4:45,13.1,62.4,13.3,12.4
 2003/04/07, 5:00,13,62.1,13.3,12.5
 2003/04/07, 5:15,12.8,62.5,13.1,12.5
 2003/04/07, 5:30,12.7,62.3,13,12.5
 2003/04/07, 5:45,12.6,62.4,12.9,12.5
 2003/04/07, 6:00,12.5,62,12.8,12.5
 2003/04/07, 6:15,12.5,62.9,12.8,12.5
 2003/04/07, 6:30,12.4,62.7,12.7,12.5
 2003/04/07, 6:45,12.4,62.6,12.7,12.5
 2003/04/07, 7:00,12.4,62.4,12.6,12.5
 2003/04/07, 7:15,12.5,62.7,12.6,12.5
 2003/04/07, 7:30,12.7,64.1,12.6,12.5
 2003/04/07, 7:45,13,66.1,12.8,12.5
 2003/04/07, 8:00,13.1,66.9,12.7,12.5
 2003/04/07, 8:15,13.2,67.2,13.2,12.5
 2003/04/07, 8:30,15.2,63.8,13.1,12.4
 2003/04/07, 8:45,16.8,59.7,13.7,12.4
 2003/04/07, 9:00,18.3,56.3,13.8,12.4
 2003/04/07, 9:15,18.8,55.5,15.6,12.5
 2003/04/07, 9:30,19.7,53.2,14.3,12.5
 2003/04/07, 9:45,20.7,51.6,14.3,12.4
 2003/04/07,10:00,19.7,45.9,14.4,12.5
 2003/04/07,10:15,18.7,53.7,19.3,12.5
 2003/04/07,10:30,18.2,55.6,19.2,12.4
 2003/04/07,10:45,18.2,56.5,19.1,12.4
 2003/04/07,11:00,18,57.5,19.1,12.5
 2003/04/07,11:15,18.1,57.9,19.2,12.5
 2003/04/07,11:30,18.1,58.3,19.1,12.5
 2003/04/07,11:45,18.2,58.7,19.2,12.5
 2003/04/07,12:00,18.1,59.1,19.2,12.5
 2003/04/07,12:15,18.3,58.6,19.1,12.5
 2003/04/07,12:30,18.6,55.3,18.9,12.5